Weather Roundup
Issued by NWS Springfield, MO

Home | Current Version | Previous Version | Text Only | Print | Product List | Glossary On
Versions: 1 2 3 4 5 6 7 8 9 10 11 12 13 14 15 16 17 18 19 20 21 22 23 24 25 26 27 28 29 30 31 32 33 34 35 36 37 38 39 40 41 42 43 44 45 46 47 48 49 50
000
NZUS99 KSGF 250007
HRRSGF

HOURLY WEATHER
NATIONAL WEATHER SERVICE SPRINGFIELD MO
600 PM CST MON NOV 24 2014

......SGF CWA......

CITY           SKY/WX    TMP DP  RH WIND       PRES   REMARKS
SPRINGFIELD    CLEAR     43  26  51 W10       29.93R
6HR MIN TEMP:  43; 6HR MAX TEMP:  49;

JOPLIN         CLEAR     43  25  49 W10       29.98R
6HR MIN TEMP:  43; 6HR MAX TEMP:  50;

WEST PLAINS    CLEAR     42  27  55 W5        29.93R
6HR MIN TEMP:  41; 6HR MAX TEMP:  51;

ROLLA          PTCLDY    37  27  67 W9        29.88R WCI  30
6HR MIN TEMP:  37; 6HR MAX TEMP:  42;

OSAGE BEACH    MOCLDY    43  25  49 W13       29.91R
BRANSON        CLEAR     45  23  42 W12G18    29.95R

......SURROUNDING SGF CWA......

CITY           SKY/WX    TMP DP  RH WIND       PRES   REMARKS
CHANUTE        CLEAR     42  20  41 NW12      29.99R
PARSONS        CLEAR     41  23  48 NW8       30.01R
COFFEYVILLE    CLEAR     45  23  42 NW10      30.00R
EMPORIA        CLEAR     38  17  42 NW7       29.99R WCI  33
GROVE OK       CLEAR     46  28  49 NW5       30.00R
ROGERS AR      CLEAR     44  24  45 W8        29.97R
SILOAM SPRINGS CLEAR     45  21  39 W6        30.00R
HARRISON AR    CLEAR     45  25  45 W3        29.95R
NEAR YELLVILLE CLEAR     48  25  40 W9        29.96R

......KANSAS AND MISSOURI......

CITY           SKY/WX    TMP DP  RH WIND       PRES   REMARKS
KANSAS CTY INT CLEAR     33  23  66 W7        29.94R WCI  27
DOWNTOWN KC    CLEAR     37  22  54 W5        29.95R WCI  33
COLUMBIA       CLOUDY    37  26  64 W14       29.90R WCI  28
SEDALIA        PTCLDY    36  23  59 W8        29.94R WCI  30
ST JOSEPH      CLEAR     29  20  69 W8        29.95R WCI  21
ST LOUIS       MOCLDY    41  27  57 W13       29.88R
SPIRIT OF STL  CLOUDY    39  28  64 W8        29.88R WCI  33
KIRKSVILLE     CLOUDY    32  24  72 W10       29.86R WCI  24
WICHITA        PTCLDY    41  16  36 NW9       30.01R
TOPEKA         CLEAR     38  18  44 NW8       29.98R WCI  32
OLATHE         FAIR      37  21  52 NW9       29.95R WCI  30

......TENNESSEE......

CITY           SKY/WX    TMP DP  RH WIND       PRES   REMARKS
MEMPHIS        PTCLDY    49  30  48 SW6       29.97R
NASHVILLE      PTCLDY    52  31  44 W7        29.93R

......ARKANSAS.......

CITY           SKY/WX    TMP DP  RH WIND       PRES   REMARKS
FAYETTEVILLE   CLEAR     44  25  47 W8        29.98R
FT SMITH       CLEAR     48  26  42 W10       30.00R
LITTLE ROCK    PTCLDY    52  22  30 W6        29.99R

......OKLAHOMA.......

CITY           SKY/WX    TMP DP  RH WIND       PRES   REMARKS
TULSA          PTCLDY    47  21  35 NW5       30.00R
PONCA CITY     CLEAR     46  20  35 NW7       30.01R
MCALESTER      CLEAR     52  21  29 NW7       30.04R
OKLAHOMA CITY  MOCLDY    49  19  30 NW8       30.02R

......IOWA............

CITY           SKY/WX    TMP DP  RH WIND       PRES   REMARKS
DES MOINES     CLOUDY    28  17  63 NW22G30   29.83R WCI  14
QUAD CITIES    CLOUDY    27  21  78 W22G29    29.75R WCI  13

......ILLINOIS........

CITY           SKY/WX    TMP DP  RH WIND       PRES   REMARKS
QUINCY         CLOUDY    32  24  72 W13G25    29.85R WCI  22
CHICAGO        CLOUDY    27  22  81 W25G40    29.63R WCI  12



USA.gov is the U.S. government's official web portal to all federal, state and local government web resources and services.